{"data":{"norad_id":62765,"intl_designator":"2025-015H","name":"STARLINK-33592","alt_names":[],"object_type":"PAYLOAD","status":"ACTIVE","operator":null,"country":"US","launch_date":"2025-01-21","launch_site_code":"AFWTR","launch_vehicle":null,"mission":null,"orbit_class":"UNKNOWN","rcs_meters":null,"size_class":null,"mass_kg":null,"dimensions":null,"purposes":["comms"],"wikipedia_slug":null,"has_3d_model":false,"image_url":null,"decayed_at":null,"tle_current":{"epoch":"2026-09-21T20:19:05.355264Z","epoch_age_seconds":54996,"freshness":"FRESH","line1":"1 62765U 25015H   26264.84658976 -.00002291  00000+0 -56733-4 0  9995","line2":"2 62765  53.1594 127.0718 0001426 107.5291 252.5868 15.34367272 94446","mean_motion":15.34367272,"eccentricity":0.0001426,"inclination_deg":53.1594,"raan_deg":127.0718,"arg_perigee_deg":107.5291,"mean_anomaly_deg":252.5868,"bstar":-5.6733e-5,"rev_number":9444,"period_min":93.849759850717,"perigee_km":461.82499875942,"apogee_km":463.77603413911,"semimajor_km":6840.9375164493,"source":"CELESTRAK","updated_at":"2026-09-22T09:00:49.661847Z"}}}